This demonstration page uses our WeatherBlox Daily Observations layout. Learn more.

Hourly Observations for February 19, 2019

Temp ( °F °C ) Dew Point ( °F °C ) Humidity (%) Winds ( mph kmh ) Pressure ( in mb ) Visibility ( mi km ) Precip ( " mm )
12:15 am 00:15 Cloudy 13 -10.5 11 -11.8 90 90 SE 3 6 30.6 1036 10 16.0934 0 0
12:35 am 00:35 Cloudy 13 -10.5 11 -11.7 91 91 SE 3 6 30.6 1036 10 16.0934 0 0
12:55 am 00:55 Cloudy 13 -10.3 11 -11.6 90 90 ESE 5 7 30.6 1036 10 16.0934 0 0
1:15 am 01:15 Cloudy 13 -10.3 11 -11.5 91 91 ESE 5 7 30.61 1037 10 16.0934 0 0
1:35 am 01:35 Cloudy with Light Snow 13 -10.3 11 -11.4 92 92 ESE 6 9 30.6 1036 10 16.0934 0 0
1:55 am 01:55 Cloudy with Light Snow 13 -10.3 12 -11.3 92 92 ESE 5 7 30.6 1036 7 11.26538 0 0
2:15 am 02:15 Cloudy with Light Snow 13 -10.3 12 -11.2 93 93 ESE 6 9 30.59 1036 10 16.0934 0 0
2:35 am 02:35 Cloudy with Light Snow 13 -10.3 12 -11.2 93 93 ESE 7 11 30.58 1036 10 16.0934 0 0
2:55 am 02:55 Cloudy 13 -10.5 12 -11.3 94 94 ESE 6 9 30.58 1036 10 16.0934 0 0
3:15 am 03:15 Cloudy 13 -10.5 12 -11.2 95 95 E 5 7 30.57 1035 10 16.0934 0 0
3:35 am 03:35 Cloudy 13 -10.5 12 -11.1 95 95 E 7 11 30.57 1035 10 16.0934 0 0
3:55 am 03:55 Cloudy 13 -10.3 12 -11 95 95 ESE 6 9 30.56 1035 10 16.0934 0 0
4:15 am 04:15 Cloudy 14 -10.2 13 -10.8 95 95 ESE 7 11 30.56 1035 10 16.0934 0 0
4:35 am 04:35 Cloudy 14 -10.2 13 -10.8 95 95 ESE 7 11 30.55 1034 10 16.0934 0 0
4:55 am 04:55 Cloudy 13 -10.3 12 -10.9 95 95 ESE 8 13 30.55 1035 10 16.0934 0 0
5:15 am 05:15 Cloudy 13 -10.5 12 -11 96 96 ESE 7 11 30.54 1034 10 16.0934 0 0
5:35 am 05:35 Cloudy 13 -10.5 13 -10.8 98 98 ESE 10 17 30.54 1034 10 16.0934 0 0
5:55 am 05:55 Cloudy 13 -10.3 13 -10.6 98 98 ESE 12 19 30.54 1034 10 16.0934 0 0
6:15 am 06:15 Cloudy 13 -10.5 13 -10.7 98 98 ESE 10 17 30.53 1034 7 11.26538 0 0
6:35 am 06:35 Cloudy 13 -10.5 13 -10.7 98 98 ESE 8 13 30.53 1034 7 11.26538 0 0
6:55 am 06:55 Cloudy with Mist and Fog 13 -10.5 13 -10.6 99 99 SE 12 19 30.53 1034 5 8.0467 0 0
7:15 am 07:15 Cloudy with Mist and Fog 13 -10.5 13 -10.6 99 99 SE 10 17 30.53 1034 5 8.0467 0 0
7:35 am 07:35 Cloudy with Light Snow 13 -10.5 13 -10.6 99 99 SE 8 13 30.53 1034 4 6.43736 0 0
7:55 am 07:55 Cloudy with Light Snow 13 -10.5 13 -10.6 99 99 SE 10 17 30.53 1034 3 4.82802 0 0
8:15 am 08:15 Cloudy with Light Snow 13 -10.5 13 -10.8 98 98 ESE 10 17 30.53 1034 4 6.43736 0 0
8:35 am 08:35 Cloudy with Light Snow 13 -10.7 12 -11.1 97 97 ESE 8 13 30.52 1034 3 4.82802 0 0
8:55 am 08:55 Cloudy with Light Snow 12 -10.9 12 -11.3 97 97 E 8 13 30.53 1034 4 6.43736 0 0
9:15 am 09:15 Cloudy with Light Snow 13 -10.7 12 -11.1 97 97 E 8 13 30.51 1033 4 6.43736 0 0
9:35 am 09:35 Cloudy with Light Snow 13 -10.5 12 -11 96 96 ESE 10 17 30.51 1033 3 4.82802 0 0
9:55 am 09:55 Cloudy with Light Snow 13 -10.3 13 -10.8 96 96 ESE 10 17 30.5 1033 4 6.43736 0 0
10:15 am 10:15 Cloudy with Light Snow 14 -9.9 13 -10.4 96 96 ESE 10 17 30.49 1032 5 8.0467 0 0
10:35 am 10:35 Cloudy with Mist and Fog 15 -9.7 13 -10.3 95 95 E 12 19 30.47 1032 5 8.0467 0 0
10:55 am 10:55 Cloudy with Light Snow 15 -9.6 14 -10.2 95 95 E 9 15 30.46 1032 5 8.0467 0 0
11:15 am 11:15 Cloudy with Light Snow 15 -9.2 14 -10 94 94 E 10 17 30.44 1031 5 8.0467 0 0
11:35 am 11:35 Cloudy with Light Snow 15 -9.2 14 -10.1 93 93 E 9 15 30.44 1031 5 8.0467 0 0
11:55 am 11:55 Cloudy 17 -8.6 15 -9.4 94 94 E 10 17 30.41 1030 7 11.26538 0 0
12:15 pm 12:15 Cloudy 18 -7.6 16 -8.7 92 92 ESE 17 28 30.38 1029 10 16.0934 0 0
12:35 pm 12:35 Cloudy 18 -7.8 16 -9 91 91 E 10 17 30.37 1029 7 11.26538 0 0
12:55 pm 12:55 Cloudy 18 -8 16 -9 93 93 E 13 20 30.36 1028 7 11.26538 0 0
1:15 pm 13:15 Cloudy 18 -7.9 16 -8.9 93 93 E 16 26 30.34 1028 10 16.0934 0 0
1:35 pm 13:35 Cloudy 19 -7.5 17 -8.6 92 92 E 14 22 30.3 1026 7 11.26538 0 0
1:55 pm 13:55 Cloudy 19 -7.5 17 -8.5 93 93 E 15 24 30.3 1026 7 11.26538 0 0
2:15 pm 14:15 Cloudy 19 -7 17 -8.2 91 91 E 12 19 30.27 1025 10 16.0934 0 0
2:35 pm 14:35 Cloudy 20 -6.9 17 -8.1 91 91 E 14 22 30.25 1024 7 11.26538 0 0
2:55 pm 14:55 Cloudy 19 -7 17 -8.2 91 91 E 15 24 30.25 1025 10 16.0934 0 0
3:15 pm 15:15 Cloudy 19 -7 17 -8.1 92 92 E 15 24 30.23 1024 10 16.0934 0 0
3:35 pm 15:35 Cloudy 20 -6.9 17 -8.1 91 91 E 15 24 30.23 1024 10 16.0934 0 0
3:55 pm 15:55 Cloudy 20 -6.9 18 -8 92 92 E 18 30 30.23 1024 10 16.0934 0 0
4:15 pm 16:15 Cloudy 19 -7 18 -7.9 93 93 E 17 28 30.23 1024 7 11.26538 0 0
4:35 pm 16:35 Cloudy 19 -7 18 -7.7 95 95 E 14 22 30.21 1023 10 16.0934 0 0
4:55 pm 16:55 Cloudy 19 -7 18 -7.6 96 96 E 15 24 30.21 1023 7 11.26538 0 0
5:15 pm 17:15 Cloudy 19 -7 18 -7.6 96 96 E 14 22 30.2 1023 7 11.26538 0 0
5:35 pm 17:35 Cloudy 19 -7 18 -7.6 96 96 E 17 28 30.18 1022 7 11.26538 0 0
6:15 pm 18:15 Cloudy 19 -7.2 18 -7.9 95 95 ENE 13 20 30.17 1022 10 16.0934 0 0
6:35 pm 18:35 Cloudy 19 -7.4 18 -7.9 96 96 E 15 24 30.15 1021 7 11.26538 0 0
6:55 pm 18:55 Cloudy with Light Snow 19 -7.5 18 -8 96 96 E 12 19 30.15 1021 1.75 2.816345 0 0
7:15 pm 19:15 Cloudy with Light Snow 19 -7.5 18 -8 96 96 E 12 19 30.14 1021 1.5 2.41401 0 0
7:35 pm 19:35 Cloudy with Light Snow 18 -7.6 17 -8.1 96 96 E 13 20 30.14 1021 1.25 2.011675 0 0
7:55 pm 19:55 Cloudy with Light Snow 18 -7.6 18 -8 97 97 E 18 30 30.14 1021 1.5 2.41401 0 0
8:15 pm 20:15 Cloudy with Snow 18 -7.7 17 -8.2 96 96 E 13 20 30.13 1020 1.25 2.011675 0 0
8:35 pm 20:35 Cloudy with Light Snow 18 -7.8 17 -8.5 95 95 E 13 20 30.12 1020 1.25 2.011675 0 0
8:55 pm 20:55 Cloudy with Light Snow 18 -8 17 -8.5 96 96 E 9 15 30.11 1020 2.5 4.02335 0 0
9:15 pm 21:15 Cloudy with Light Snow 18 -8 17 -8.5 96 96 E 12 19 30.1 1019 5 8.0467 0 0
9:35 pm 21:35 Cloudy with Light Snow 18 -8 17 -8.5 96 96 E 12 19 30.1 1019 7 11.26538 0 0
9:55 pm 21:55 Cloudy with Light Snow 18 -8 17 -8.5 96 96 E 10 17 30.09 1019 7 11.26538 0 0
10:15 pm 22:15 Cloudy with Light Snow 17 -8.1 17 -8.6 96 96 E 9 15 30.08 1019 5 8.0467 0 0
10:35 pm 22:35 Cloudy with Light Snow 17 -8.1 17 -8.5 97 97 E 7 11 30.07 1018 3 4.82802 0 0
10:55 pm 22:55 Cloudy with Light Snow 17 -8.1 17 -8.5 97 97 E 7 11 30.04 1017 3 4.82802 0 0
11:15 pm 23:15 Cloudy with Light Snow 17 -8.1 17 -8.5 97 97 E 8 13 30.03 1017 2.5 4.02335 0 0
11:35 pm 23:35 Cloudy with Light Snow 17 -8.1 17 -8.5 97 97 E 7 11 30.03 1017 3 4.82802 0 0
11:55 pm 23:55 Cloudy with Light Snow 17 -8.2 17 -8.6 97 97 E 7 11 30.02 1017 1.75 2.816345 0 0

Powered by AerisWeather